Regional Weather Roundup
Issued by NWS Charleston, WV

Home | Current Version | Previous Version | Graphics & Text | Print | Product List | Glossary On
Versions: 1 2 3 4 5 6 7 8 9 10 11 12 13 14 15 16 17 18 19 20 21 22 23 24 25 26 27 28 29 30 31 32 33 34 35 36 37 38 39 40 41 42 43 44 45 46 47 48 49 50
567
ASUS41 KRLX 290510
RWRRLX
West Virginia Regional Weather Roundup
National Weather Service Charleston WV
100 AM EDT WED MAR 29 2017

Note: "fair" indicates few or no clouds below 12,000 feet with no
significant weather and/or obstructions to visibility.

WVZ003-290600-
Northern Panhandle of West Virginia

CITY           SKY/WX    TMP DP  RH WIND       PRES   REMARKS
WHEELING       CLOUDY    46  40  79 N7        30.12R
$$

WVZ009-290600-
Northwest West Virginia

CITY           SKY/WX    TMP DP  RH WIND       PRES   REMARKS
PARKERSBURG    CLOUDY    49  42  77 N7        30.15R
$$

WVZ006-290600-
Western West Virginia

CITY           SKY/WX    TMP DP  RH WIND       PRES   REMARKS
HUNTINGTON     CLOUDY    56  50  80 N7        30.10S
$$

WVZ015-290600-
West Central West Virginia

CITY           SKY/WX    TMP DP  RH WIND       PRES   REMARKS
CHARLESTON     CLOUDY    57  48  72 NW8       30.09R
$$

WVZ022-031-290600-
North Central West Virginia

CITY           SKY/WX    TMP DP  RH WIND       PRES   REMARKS
CLARKSBURG     CLOUDY    53  47  79 N7        30.08R
MORGANTOWN     CLOUDY    50  43  77 VRB5      30.10R
$$

WVZ025-035-042-045-290600-
Southern West Virginia

CITY           SKY/WX    TMP DP  RH WIND       PRES   REMARKS
BECKLEY        CLOUDY    52  50  93 N8        30.08S FOG
LOGAN          CLOUDY    55  52  88 CALM      30.09S
BLUEFIELD      NOT AVBL
LEWISBURG      CLOUDY    54  51  87 CALM      30.06S
$$

WVZ047-290600-
Northern Mountains of West Virginia

CITY           SKY/WX    TMP DP  RH WIND       PRES   REMARKS
ELKINS         CLOUDY    52  48  86 CALM      30.07S
$$

WVZ052-290600-
Eastern Panhandle of West Virginia

CITY           SKY/WX    TMP DP  RH WIND       PRES   REMARKS
MARTINSBURG    CLOUDY    59  50  72 N3        29.99S
PETERSBURG     CLOUDY    59  51  73 N6        30.04S
$$




USA.gov is the U.S. government's official web portal to all federal, state and local government web resources and services.